GW1838 Weather Reports


time (UTC)temp
C
wind
direction
speed
KPH
gust
KPH
rain 1hr
cm
rain 24hr
cm
rain mn
cm
humidity
%
barometer
mb
20260902230804 23 95 11.3 20.9 0.00 4.42 0.00 85 1016.7
20260902230304 23 88 12.9 20.9 0.00 4.42 0.00 85 1016.7
20260902224803 23 97 14.5 22.5 0.00 4.42 0.00 85 1017.1
20260902223803 23 99 12.9 20.9 0.00 4.42 0.00 85 1017.2
20260902222803 23 80 11.3 19.3 0.00 4.42 0.00 85 1017.5
20260902221804 23 74 8.0 22.5 0.00 4.42 0.00 85 1017.6
20260902221304 23 95 11.3 19.3 0.00 4.42 0.00 84 1017.6
20260902214808 23 99 9.7 16.1 0.00 4.42 0.00 84 1017.8
20260902214307 23 95 9.7 16.1 0.00 4.42 0.00 84 1017.7
20260902213807 23 97 9.7 19.3 0.00 4.42 0.00 84 1017.8
20260902213307 23 106 8.0 14.5 0.00 4.42 0.00 84 1017.8
20260902212813 23 82 8.0 19.3 0.00 4.42 0.00 84 1017.8
20260902211307 23 81 9.7 19.3 0.00 4.42 0.00 83 1017.4
20260902204808 23 87 8.0 16.1 0.00 4.42 0.00 83 1017.3
20260902204307 23 98 11.3 19.3 0.00 4.42 0.00 84 1017.2
20260902203808 23 100 11.3 16.1 0.00 4.42 0.00 83 1017.3
20260902203307 23 101 11.3 19.3 0.00 4.42 0.00 83 1017.3
20260902202807 23 103 11.3 16.1 0.00 4.42 0.00 83 1017.4
20260902201808 23 96 9.7 19.3 0.00 4.42 0.00 83 1017.6
20260902200808 23 104 9.7 16.1 0.00 4.42 0.00 83 1017.7
20260902195308 24 106 8.0 16.1 0.00 4.42 0.00 82 1017.7
20260902194807 24 87 8.0 16.1 0.00 4.42 0.00 82 1017.8
20260902193808 24 94 4.8 11.3 0.00 4.42 0.00 82 1017.9
20260902193307 24 95 8.0 16.1 0.00 4.42 0.00 81 1017.7
20260902192808 24 81 4.8 14.5 0.00 4.42 0.00 82 1017.8
20260902192307 24 103 9.7 16.1 0.00 4.42 0.00 82 1017.8
20260902191308 24 104 9.7 14.5 0.00 4.42 0.00 81 1018.0
20260902190807 24 105 11.3 19.3 0.00 4.42 0.00 81 1018.2
20260902190307 24 103 8.0 16.1 0.00 4.42 0.00 80 1018.3
20260902185308 24 104 9.7 16.1 0.00 4.42 0.00 80 1018.4
20260902184307 25 102 8.0 12.9 0.00 4.42 0.00 80 1018.0
20260902181807 25 77 4.8 12.9 0.00 4.42 0.00 78 1018.7
20260902181307 25 89 8.0 19.3 0.00 4.42 0.00 78 1018.7
20260902175808 25 78 9.7 19.3 0.00 4.42 0.00 78 1018.9
20260902173808 25 69 11.3 19.3 0.00 4.42 0.00 78 1018.5
20260902173308 25 70 9.7 19.3 0.00 4.42 0.00 79 1018.5
20260902172808 25 73 9.7 19.3 0.00 4.42 0.00 79 1018.5
20260902172308 25 101 11.3 19.3 0.00 4.42 0.00 78 1018.5
20260902171807 25 80 9.7 19.3 0.00 4.42 0.00 79 1018.4
20260902170808 25 90 11.3 19.3 0.00 4.42 0.00 78 1018.4
20260902170308 25 72 9.7 19.3 0.00 4.42 0.00 79 1018.6
20260902164807 25 68 8.0 19.3 0.00 4.42 0.00 79 1018.7
20260902162307 25 74 9.7 16.1 0.00 4.42 0.00 78 1018.6
20260902161307 25 99 11.3 19.3 0.00 4.42 0.00 78 1018.6
20260902160807 25 99 11.3 20.9 0.00 4.42 0.00 78 1018.6
20260902155307 25 96 14.5 24.1 0.00 4.42 0.00 79 1018.5
20260902153807 25 93 9.7 22.5 0.00 4.42 0.00 79 1018.5
20260902153307 25 93 12.9 20.9 0.00 4.42 0.00 80 1018.6
20260902145307 25 97 12.9 24.1 0.00 4.42 0.00 81 1018.9
20260902144307 24 95 11.3 24.1 0.00 4.42 0.00 83 1018.6
20260902142807 24 99 12.9 20.9 0.00 4.42 0.00 84 1018.8
20260902140807 24 93 9.7 19.3 0.00 4.42 0.00 84 1018.8
20260902140307 24 93 11.3 19.3 0.00 4.42 0.00 84 1018.7
20260902135307 24 98 9.7 19.3 0.00 4.42 0.00 85 1018.4
20260902133807 23 89 12.9 22.5 0.00 4.42 0.00 86 1018.2
20260902132807 23 93 11.3 19.3 0.00 4.42 0.00 87 1018.0
20260902131807 23 96 12.9 22.5 0.00 4.42 0.00 88 1018.0
20260902131307 23 91 11.3 22.5 0.00 4.42 0.00 88 1017.9
20260902130307 23 92 9.7 19.3 0.00 4.42 0.00 88 1017.8
20260902125307 23 95 14.5 19.3 0.00 4.42 0.00 88 1017.9
20260902124309 23 94 11.3 19.3 0.00 4.42 0.00 88 1018.0
20260902123807 23 87 9.7 19.3 0.00 4.42 0.00 89 1017.9
20260902122307 23 92 11.3 19.3 0.00 4.42 0.00 90 1017.8
20260902120307 22 86 9.7 22.5 0.00 4.42 0.00 90 1017.9
20260902115309 22 82 11.3 20.9 0.00 4.42 0.00 90 1017.7
20260902113808 22 79 9.7 19.3 0.00 4.42 0.00 90 1017.7
20260902112307 22 69 9.7 19.3 0.00 4.42 0.00 91 1017.8
20260902110807 22 93 8.0 19.3 0.00 4.42 0.00 90 1017.7
20260902110307 22 82 9.7 19.3 0.00 4.42 0.00 90 1017.6
20260902103807 23 71 11.3 20.9 0.00 4.42 0.00 89 1017.5
20260902103307 23 83 12.9 22.5 0.00 4.42 0.00 89 1017.5
20260902102807 23 96 11.3 22.5 0.00 4.42 0.00 89 1017.5
20260902102308 23 86 9.7 24.1 0.00 4.42 0.00 89 1017.4
20260902101807 23 75 9.7 20.9 0.00 4.42 0.00 89 1017.4
20260902101307 23 70 11.3 22.5 0.00 4.42 0.00 89 1017.4
20260902100807 23 70 11.3 20.9 0.00 4.42 0.00 89 1017.3
20260902094807 23 73 9.7 16.1 0.00 4.42 0.00 89 1017.0
20260902094307 23 62 11.3 22.5 0.00 4.42 0.00 89 1016.9
20260902093807 23 72 11.3 20.9 0.00 4.42 0.00 89 1016.8
20260902092808 23 87 12.9 19.3 0.00 4.42 0.00 90 1016.7
20260902091308 23 73 11.3 19.3 0.00 4.42 0.00 90 1016.6
20260902085807 23 56 11.3 19.3 0.00 4.42 0.00 90 1016.5
20260902085306 23 88 9.7 19.3 0.00 4.42 0.00 90 1016.5
20260902082808 23 88 11.3 19.3 0.00 4.42 0.00 91 1016.4
20260902080307 23 65 11.3 20.9 0.00 4.42 0.00 91 1016.0
20260902075807 23 76 12.9 22.5 0.00 4.42 0.00 91 1016.1
20260902074806 23 69 12.9 20.9 0.00 4.42 0.00 91 1016.2
20260902074307 23 69 11.3 20.9 0.00 4.42 0.00 91 1016.2
20260902073307 23 79 9.7 20.9 0.00 4.42 0.00 92 1016.1
20260902072807 23 53 9.7 20.9 0.00 4.42 0.00 92 1016.0
20260902072309 23 65 9.7 19.3 0.00 4.42 0.00 92 1016.0
20260902071307 23 58 12.9 19.3 0.00 4.42 0.00 92 1015.9
20260902070807 23 65 12.9 19.3 0.00 4.42 0.00 92 1015.9
20260902070307 23 58 9.7 19.3 0.00 4.42 0.00 92 1015.9
20260902065807 23 54 14.5 25.7 0.00 4.42 0.00 92 1015.8
20260902063807 23 60 9.7 19.3 0.00 4.42 0.00 92 1015.9
20260902062807 23 70 11.3 22.5 0.00 4.42 0.00 93 1015.7
20260902061807 23 59 14.5 22.5 0.00 4.42 0.00 93 1015.6
20260902061307 23 54 9.7 20.9 0.00 4.42 0.00 93 1015.6
20260902060807 23 54 9.7 19.3 0.00 4.42 0.00 93 1015.7
20260902055807 23 37 9.7 22.5 0.00 4.42 0.00 93 1015.6
20260902053807 23 64 9.7 24.1 0.00 4.42 0.00 93 1015.7
20260902053307 23 70 12.9 24.1 0.00 4.42 0.00 93 1015.6
20260902051807 23 41 11.3 24.1 0.00 4.42 0.00 93 1015.7
20260902045807 23 50 9.7 19.3 0.00 4.42 0.00 93 1015.6
20260902045307 23 49 9.7 20.9 0.00 4.42 0.00 92 1015.6
20260902043807 23 34 11.3 20.9 0.00 4.42 0.00 92 1015.6
20260902043307 23 30 11.3 20.9 0.00 4.42 0.00 92 1015.6
20260902042807 23 24 12.9 25.7 0.00 4.42 0.00 92 1015.5
20260902042309 23 36 14.5 24.1 0.00 4.42 0.00 92 1015.5
20260902041807 23 26 14.5 24.1 0.00 4.42 0.00 92 1015.4
20260902040838 23 25 19.3 25.7 0.00 4.42 0.00 92 1015.3
20260902040308 23 25 16.1 24.1 0.00 4.42 0.00 92 1015.3
20260902035807 23 33 14.5 24.1 0.00 4.42 4.42 92 1015.1
20260902035307 23 29 11.3 19.3 0.00 4.42 4.42 92 1015.0
20260902034807 22 30 11.3 19.3 0.00 4.42 4.42 92 1015.0
20260902033807 22 353 14.5 20.9 0.00 4.42 4.42 92 1015.0
20260902033307 22 349 17.7 22.5 0.03 4.42 4.42 92 1015.0
20260902032807 22 350 16.1 19.3 0.03 4.42 4.42 92 1014.9
20260902032307 22 346 14.5 20.9 0.03 4.42 4.42 92 1014.7
20260902030807 22 324 3.2 9.7 0.03 4.42 4.42 92 1014.8
20260902024807 22 253 6.4 19.3 0.05 4.42 4.42 91 1014.8
20260902024307 22 250 9.7 24.1 0.08 4.42 4.42 91 1015.0
20260902023307 22 241 11.3 19.3 0.13 4.39 4.39 92 1015.2
20260902021806 22 255 3.2 4.8 1.17 4.39 4.39 91 1015.4
20260902020307 22 311 9.7 22.5 3.20 4.39 4.39 91 1014.8
20260902015806 22 345 14.5 22.5 3.58 4.39 4.39 92 1014.3
20260902015307 22 19 6.4 16.1 3.94 4.39 4.39 91 1013.7
20260902014807 22 4 4.8 16.1 4.04 4.37 4.37 92 1013.5
20260902014307 22 321 6.4 16.1 4.17 4.34 4.34 92 1014.0
20260902012807 22 115 11.3 32.2 4.14 4.22 4.22 91 1013.3
20260902012309 22 90 20.9 37.0 3.96 4.01 4.01 91 1013.8
20260902011806 22 77 22.5 41.8 3.23 3.23 3.23 90 1014.7
20260902011306 23 48 33.8 45.1 2.26 2.26 2.26 88 1014.3
20260902010306 25 348 14.5 32.2 1.19 1.19 1.19 89 1013.0
20260902004807 26 248 3.2 8.0 0.33 0.33 0.33 89 1012.4
20260902003307 26 233 4.8 8.0 0.08 0.08 0.08 89 1012.1
20260902002807 26 212 3.2 9.7 0.08 0.08 0.08 89 1011.8
20260902002307 26 205 3.2 4.8 0.05 0.05 0.05 88 1012.1
20260902000307 26 196 8.0 11.3 0.00 0.00 0.00 87 1012.5
20260901234307 27 224 6.4 19.3 0.00 0.00 0.00 86 1012.3
20260901233306 27 243 9.7 20.9 0.00 0.00 0.00 85 1012.5
20260901231807 27 233 4.8 12.9 0.00 0.00 0.00 84 1012.5
20260901231307 27 233 6.4 14.5 0.00 0.00 0.00 84 1012.5